[[{"header":{"parameterUnit":"m.s-1","parameterCategory":2,"la1":30.2992,"la2":30.254,"lo1":-89.0895,"lo2":-89.0443,"dy":0.0025,"dx":0.0025,"nx":19,"ny":19,"refTime":"2026-04-02T09:00:00:Z","depth":"0","parameterNumber":2,"parameterNumberName":"U-component_of_CURRENTS"},"data":[0,0,0,-0.1822,-0.1825,-0.1946,-0.1946,-0.1963,-0.1963,0,0,0,0,0,0,0,0,0,0,0,-0.1762,-0.1762,-0.1822,-0.1826,-0.1946,-0.1946,-0.1963,-0.1963,0,0,0,0,0,0,0,0,0,0,0,-0.1761,-0.1762,-0.1763,-0.1826,-0.1946,-0.1946,-0.1963,-0.1903,0,0,0,0,0,0,0,0,0,0,-0.1802,-0.1762,-0.1762,-0.1763,-0.1827,-0.1946,-0.1946,-0.1902,-0.1907,-0.1874,0,-0.1895,0,-0.1941,-0.1963,-0.1963,0,0,0,-0.1812,-0.1758,-0.1805,-0.1763,-0.1828,-0.1946,-0.1888,-0.1906,-0.1911,-0.188,-0.1896,-0.1898,-0.1942,-0.1963,-0.1963,-0.1896,-0.1896,0,0,-0.1805,-0.1767,-0.1801,-0.1809,-0.186,-0.1884,-0.1892,-0.191,-0.1904,-0.1896,-0.19,-0.1942,-0.1963,-0.1962,-0.1897,-0.1896,0,0,0,-0.1795,-0.1762,-0.1811,-0.1806,-0.1846,-0.1888,-0.1897,-0.1903,-0.1924,-0.19,-0.1942,-0.1962,-0.1962,-0.1898,-0.1897,-0.1898,0,0,0,-0.1791,-0.1758,-0.1808,-0.1784,-0.1847,-0.1894,-0.1888,-0.1922,-0.1927,-0.1942,-0.1962,-0.1962,-0.1898,-0.1897,-0.19,-0.1914,0,0,0,-0.1756,-0.1755,-0.1772,-0.1782,-0.1845,-0.1896,-0.1917,-0.1924,-0.1952,-0.1963,-0.1962,-0.1899,-0.1897,-0.1901,-0.1915,-0.1973,0,0,0,-0.1708,-0.1736,-0.1771,-0.1813,-0.1844,-0.1905,-0.1918,-0.1957,-0.1967,-0.1962,-0.1898,-0.1897,-0.1902,-0.1916,-0.1973,-0.2037,-0.2044,0,0,-0.1721,-0.1736,-0.1764,-0.18,-0.1855,-0.1887,-0.1905,-0.1929,-0.1924,-0.1882,-0.1882,-0.1899,-0.1915,-0.1973,-0.1948,-0.1958,0,0,0,-0.1755,-0.1764,-0.179,-0.183,-0.1882,-0.1897,-0.1924,-0.1915,-0.1892,-0.1928,-0.1867,-0.1877,-0.1914,-0.1951,-0.1957,-0.1945,-0.189,-0.189,-0.189,-0.1697,-0.1747,-0.1773,-0.1824,-0.1853,-0.1891,-0.1896,-0.1874,-0.1872,-0.1847,-0.1854,-0.1865,-0.1898,-0.1906,-0.189,-0.1818,-0.1818,-0.1818,-0.1818,-0.1687,-0.1697,-0.174,-0.178,-0.1807,-0.1813,-0.1835,-0.1841,-0.1843,-0.1814,-0.1852,-0.1918,-0.1914,-0.1894,-0.1818,-0.1818,-0.1818,-0.1818,-0.1818,-0.1625,-0.1636,-0.1666,-0.1704,-0.1727,-0.177,-0.1818,-0.183,-0.1845,-0.187,-0.1954,-0.1955,-0.1966,-0.1905,-0.1906,-0.1906,-0.1906,-0.1906,-0.1907,-0.1545,-0.1578,-0.1585,-0.1633,-0.166,-0.1715,-0.1812,-0.1874,-0.1957,-0.1968,-0.1969,-0.1956,-0.1892,-0.1921,-0.1911,-0.191,-0.191,-0.1909,-0.1909,-0.1471,-0.1485,-0.1498,-0.1524,-0.1611,-0.1664,-0.1801,-0.1981,-0.2061,-0.2118,-0.2073,-0.2034,-0.2056,-0.205,-0.2082,-0.2115,-0.2115,-0.2115,-0.2115,-0.14,-0.1417,-0.1425,-0.1471,-0.1551,-0.1643,-0.1792,-0.197,-0.2113,-0.2139,-0.2148,-0.2117,-0.2109,-0.2132,-0.2124,-0.2156,-0.2206,-0.2206,-0.2206,-0.1336,-0.1359,-0.1342,-0.1415,-0.1523,-0.1614,-0.1717,-0.1917,-0.2128,-0.2205,-0.2117,-0.2113,-0.2058,-0.2047,-0.2072,-0.2063,-0.2111,0,0]},{"header":{"parameterUnit":"m.s-1","parameterCategory":2,"la1":30.2992,"la2":30.254,"lo1":-89.0895,"lo2":-89.0443,"dy":0.0025,"dx":0.0025,"nx":19,"ny":19,"refTime":"2026-04-02T09:00:00:Z","depth":"0","parameterNumber":3,"parameterNumberName":"V-component_of_CURRENTS"},"data":[0,0,0,-0.0103,-0.0102,-0.0057,-0.0056,0.0035,0.0036,0,0,0,0,0,0,0,0,0,0,0,-0.012,-0.012,-0.0103,-0.0102,-0.0057,-0.0056,0.0035,0.0036,0,0,0,0,0,0,0,0,0,0,0,-0.012,-0.012,-0.012,-0.0102,-0.0057,-0.0056,0.0035,-0.0006,0,0,0,0,0,0,0,0,0,0,-0.0054,-0.008,-0.012,-0.012,-0.0102,-0.0057,-0.0056,-0.0008,-0.0004,0.0022,0,0.0023,0,0.0031,0.0042,0.0043,0,0,0,-0.0095,-0.0084,-0.007,-0.012,-0.0101,-0.0057,-0.0075,-0.0006,-0.0,0.0028,0.0024,0.0027,0.0032,0.0043,0.0043,0.0131,0.0131,0,0,-0.0098,-0.011,-0.0074,-0.0067,-0.0096,-0.0077,-0.0074,-0.0003,-0.0,0.0024,0.0029,0.0034,0.0043,0.0044,0.0131,0.0131,0,0,0,-0.011,-0.0112,-0.01,-0.007,-0.0065,-0.0076,-0.0072,-0.0003,0.0001,0.003,0.0035,0.0044,0.0045,0.013,0.0131,0.0094,0,0,0,-0.0111,-0.0119,-0.0102,-0.0108,-0.0067,-0.0039,-0.0074,-0.0004,0.0004,0.0034,0.0044,0.0046,0.013,0.0131,0.0094,0.007,0,0,0,-0.0121,-0.012,-0.0117,-0.0109,-0.0092,-0.004,-0.0032,-0.0003,0.0007,0.0043,0.0046,0.013,0.013,0.0095,0.0071,0.0097,0,0,0,-0.0132,-0.0165,-0.0117,-0.0151,-0.0093,-0.0088,-0.0032,-0.0026,-0.0004,0.0044,0.013,0.0131,0.0095,0.0072,0.0097,0.0091,0.0089,0,0,-0.0189,-0.0172,-0.0194,-0.0151,-0.0172,-0.0093,-0.0076,-0.0026,0.0023,0.011,0.0112,0.0094,0.0071,0.0097,0.0126,0.0124,0,0,0,-0.0222,-0.0235,-0.0235,-0.0229,-0.0199,-0.0135,-0.0077,-0.0022,0.0057,0.004,0.0117,0.0104,0.0122,0.0119,0.0117,0.0319,0.0134,0.0133,0.0133,-0.0301,-0.0287,-0.0315,-0.0284,-0.0257,-0.0161,-0.0099,-0.0001,0.0036,0.0075,0.0092,0.0108,0.0105,0.0103,0.0312,0.0117,0.0117,0.0117,0.0116,-0.0385,-0.0401,-0.0355,-0.0379,-0.029,-0.0248,-0.0094,-0.0038,0.0075,0.0095,0.0115,0.0101,0.0099,0.0323,0.0114,0.0115,0.0115,0.0115,0.0115,-0.0435,-0.0442,-0.0446,-0.0445,-0.0391,-0.0288,-0.0208,-0.0084,0.0031,0.0061,0.0088,0.0088,0.0272,0.0076,0.0076,0.0076,0.0076,0.0076,0.0076,-0.0487,-0.049,-0.0524,-0.0508,-0.0498,-0.0433,-0.0271,-0.0191,-0.0041,0.0051,0.0052,0.031,0.0096,0.0082,0.0076,0.0076,0.0076,0.0076,0.0076,-0.0558,-0.0555,-0.0615,-0.0627,-0.0607,-0.0597,-0.0446,-0.0277,-0.0144,-0.0077,0.0312,0.0067,0.0084,0.0086,0.0074,0.0065,0.0065,0.0065,0.0065,-0.0598,-0.0603,-0.0689,-0.0728,-0.0729,-0.0671,-0.0637,-0.0408,0.005,0.0316,0.0425,0.0458,0.045,0.0492,0.0484,0.0482,0.0578,0.0579,0.058,-0.0635,-0.0663,-0.0734,-0.0782,-0.0791,-0.0773,-0.0769,-0.0505,0.0245,0.0624,0.0714,0.0693,0.0766,0.0735,0.0817,0.079,0.0791,0,0]}],[{"header":{"parameterUnit":"m.s-1","parameterCategory":2,"la1":30.2992,"la2":30.254,"lo1":-89.0895,"lo2":-89.0443,"dy":0.0025,"dx":0.0025,"nx":19,"ny":19,"refTime":"2026-04-02T09:00:00:Z","depth":"2","parameterNumber":2,"parameterNumberName":"U-component_of_CURRENTS"},"data":[0,0,0,-0.1717,-0.172,-0.1849,-0.1849,-0.1866,-0.1866,0,0,0,0,0,0,0,0,0,0,0,-0.1657,-0.1658,-0.1716,-0.172,-0.1849,-0.1849,-0.1866,-0.1866,0,0,0,0,0,0,0,0,0,0,0,-0.1656,-0.1657,-0.1658,-0.1721,-0.1849,-0.1849,-0.1866,-0.1802,0,0,0,0,0,0,0,0,0,0,-0.1694,-0.1657,-0.1657,-0.1658,-0.1722,-0.1849,-0.1849,-0.1801,-0.1806,-0.1769,0,-0.1794,0,-0.184,-0.1865,-0.1865,0,0,0,-0.1707,-0.1653,-0.17,-0.1659,-0.1723,-0.1849,-0.1787,-0.1805,-0.1811,-0.1776,-0.1795,-0.1797,-0.184,-0.1865,-0.1864,-0.1795,-0.1795,0,0,-0.17,-0.1664,-0.1697,-0.1704,-0.176,-0.1783,-0.1791,-0.181,-0.1806,-0.1795,-0.1799,-0.184,-0.1864,-0.1864,-0.1796,-0.1795,0,0,0,-0.1688,-0.1659,-0.1709,-0.1702,-0.1743,-0.1787,-0.1797,-0.1805,-0.1826,-0.1799,-0.184,-0.1864,-0.1864,-0.1797,-0.1796,-0.1801,0,0,0,-0.1683,-0.1654,-0.1705,-0.1683,-0.1744,-0.1795,-0.179,-0.1824,-0.1829,-0.184,-0.1864,-0.1864,-0.1798,-0.1796,-0.1802,-0.1809,0,0,0,-0.165,-0.165,-0.167,-0.1681,-0.1747,-0.1797,-0.1819,-0.1827,-0.1853,-0.1865,-0.1864,-0.1798,-0.1797,-0.1803,-0.1811,-0.1853,0,0,0,-0.1602,-0.1636,-0.1668,-0.1716,-0.1746,-0.1808,-0.182,-0.1861,-0.1872,-0.1864,-0.1797,-0.1796,-0.1804,-0.1812,-0.1853,-0.19,-0.1903,0,0,-0.1621,-0.1637,-0.1668,-0.1701,-0.1759,-0.179,-0.181,-0.1834,-0.1827,-0.178,-0.178,-0.1802,-0.1811,-0.1853,-0.1812,-0.1819,0,0,0,-0.1659,-0.1671,-0.1697,-0.1739,-0.179,-0.1803,-0.1831,-0.182,-0.1797,-0.1831,-0.1769,-0.1774,-0.1802,-0.1828,-0.1833,-0.1789,-0.1789,-0.1789,-0.1789,-0.1609,-0.1657,-0.1687,-0.1737,-0.1766,-0.18,-0.1802,-0.1776,-0.1778,-0.1753,-0.1755,-0.1755,-0.1779,-0.1784,-0.1723,-0.1723,-0.1723,-0.1723,-0.1723,-0.1604,-0.1615,-0.1657,-0.17,-0.1723,-0.1729,-0.1741,-0.1745,-0.1736,-0.1716,-0.1744,-0.18,-0.179,-0.1723,-0.1723,-0.1723,-0.1723,-0.1723,-0.1723,-0.1546,-0.1557,-0.1588,-0.1628,-0.1648,-0.1687,-0.1716,-0.1724,-0.1735,-0.1752,-0.1818,-0.1818,-0.18,-0.1784,-0.1785,-0.1785,-0.1785,-0.1785,-0.1785,-0.1467,-0.1502,-0.1511,-0.156,-0.1584,-0.1627,-0.1705,-0.1751,-0.1817,-0.1825,-0.1826,-0.1777,-0.1775,-0.1803,-0.1788,-0.1788,-0.1787,-0.1787,-0.1787,-0.1397,-0.1412,-0.1428,-0.1452,-0.1524,-0.1554,-0.1676,-0.1822,-0.1889,-0.1934,-0.1876,-0.1873,-0.1888,-0.1884,-0.1914,-0.1929,-0.1929,-0.1929,-0.1929,-0.1327,-0.1345,-0.1353,-0.1389,-0.1448,-0.1521,-0.1617,-0.1727,-0.1845,-0.1838,-0.1841,-0.1811,-0.1809,-0.1816,-0.1813,-0.1841,-0.1837,-0.1836,-0.1835,-0.1265,-0.1288,-0.1268,-0.1331,-0.1412,-0.1474,-0.1511,-0.1547,-0.1655,-0.1823,-0.1735,-0.194,-0.1905,-0.1898,-0.1916,-0.1909,-0.1956,0,0]},{"header":{"parameterUnit":"m.s-1","parameterCategory":2,"la1":30.2992,"la2":30.254,"lo1":-89.0895,"lo2":-89.0443,"dy":0.0025,"dx":0.0025,"nx":19,"ny":19,"refTime":"2026-04-02T09:00:00:Z","depth":"2","parameterNumber":3,"parameterNumberName":"V-component_of_CURRENTS"},"data":[0,0,0,-0.0159,-0.0158,-0.0109,-0.0109,-0.0007,-0.0006,0,0,0,0,0,0,0,0,0,0,0,-0.0178,-0.0178,-0.0159,-0.0158,-0.0109,-0.0109,-0.0007,-0.0006,0,0,0,0,0,0,0,0,0,0,0,-0.0178,-0.0178,-0.0177,-0.0158,-0.0109,-0.0109,-0.0007,-0.0052,0,0,0,0,0,0,0,0,0,0,-0.0104,-0.0132,-0.0178,-0.0177,-0.0158,-0.0109,-0.0109,-0.0055,-0.0049,-0.0021,0,-0.002,0,-0.0012,0.0001,0.0001,0,0,0,-0.015,-0.0136,-0.0122,-0.0177,-0.0158,-0.0109,-0.0129,-0.0052,-0.0046,-0.0014,-0.0018,-0.0015,-0.001,0.0002,0.0002,0.0096,0.0096,0,0,-0.0153,-0.0166,-0.0126,-0.0119,-0.0152,-0.0131,-0.0128,-0.0049,-0.0045,-0.0018,-0.0012,-0.0009,0.0002,0.0003,0.0095,0.0096,0,0,0,-0.0166,-0.0168,-0.0156,-0.0123,-0.0117,-0.0129,-0.0126,-0.0048,-0.0045,-0.0011,-0.0007,0.0003,0.0004,0.0095,0.0096,0.0058,0,0,0,-0.0168,-0.0176,-0.0157,-0.0164,-0.012,-0.0088,-0.0128,-0.005,-0.0041,-0.0008,0.0003,0.0005,0.0095,0.0095,0.0058,0.0031,0,0,0,-0.0179,-0.0177,-0.0174,-0.0165,-0.0147,-0.0089,-0.0081,-0.0048,-0.0039,0.0002,0.0006,0.0095,0.0095,0.0058,0.0033,0.0049,0,0,0,-0.0189,-0.0221,-0.0174,-0.0205,-0.0147,-0.0138,-0.0081,-0.007,-0.0045,0.0004,0.0095,0.0096,0.0058,0.0034,0.005,0.0031,0.0028,0,0,-0.0244,-0.0228,-0.0248,-0.0206,-0.0223,-0.0143,-0.0122,-0.0067,-0.0017,0.0073,0.0075,0.0058,0.0033,0.005,0.0065,0.006,0,0,0,-0.0276,-0.0288,-0.0286,-0.0278,-0.0246,-0.0181,-0.0118,-0.0063,0.0018,0.0001,0.0081,0.0066,0.0078,0.0068,0.0065,0.0098,0.0098,0.0098,0.0098,-0.0354,-0.0339,-0.0364,-0.033,-0.0301,-0.0203,-0.0141,-0.0042,-0.0002,0.0037,0.0052,0.006,0.005,0.0047,0.0078,0.0078,0.0078,0.0078,0.0078,-0.0436,-0.0451,-0.0403,-0.0424,-0.0334,-0.0289,-0.0136,-0.0079,0.0029,0.0054,0.0068,0.0049,0.0041,0.0075,0.0076,0.0076,0.0076,0.0076,0.0077,-0.0487,-0.0493,-0.0496,-0.0492,-0.0436,-0.0331,-0.0254,-0.0131,-0.0018,0.0007,0.0022,0.0023,0.0031,0.0018,0.0018,0.0018,0.0018,0.0018,0.0018,-0.0541,-0.0542,-0.0574,-0.0556,-0.0544,-0.048,-0.0321,-0.0246,-0.0107,-0.002,-0.0019,0.0041,0.0043,0.0029,0.0017,0.0017,0.0017,0.0018,0.0018,-0.0612,-0.0608,-0.0667,-0.0678,-0.0656,-0.0644,-0.0498,-0.0345,-0.0224,-0.0165,-0.0015,-0.0014,-0.0,0.0003,-0.001,-0.0031,-0.0031,-0.0031,-0.0031,-0.0653,-0.0657,-0.0741,-0.0778,-0.0778,-0.0718,-0.0691,-0.0491,-0.0239,-0.0094,-0.0091,-0.0093,-0.0089,-0.0079,-0.0074,-0.0088,-0.013,-0.0131,-0.0131,-0.069,-0.0718,-0.0787,-0.0832,-0.0838,-0.0819,-0.0817,-0.0597,-0.0226,-0.0135,-0.0116,-0.0037,-0.0031,-0.0029,-0.0005,-0.0001,-0.002,0,0]}],[{"header":{"parameterUnit":"m.s-1","parameterCategory":2,"la1":30.2992,"la2":30.254,"lo1":-89.0895,"lo2":-89.0443,"dy":0.0025,"dx":0.0025,"nx":19,"ny":19,"refTime":"2026-04-02T09:00:00:Z","depth":"4","parameterNumber":2,"parameterNumberName":"U-component_of_CURRENTS"},"data":[0,0,0,-0.0715,-0.0714,-0.0716,-0.0716,-0.0823,-0.0824,0,0,0,0,0,0,0,0,0,0,0,-0.0722,-0.0722,-0.0715,-0.0714,-0.0716,-0.0716,-0.0823,-0.0824,0,0,0,0,0,0,0,0,0,0,0,-0.0722,-0.0722,-0.0722,-0.0714,-0.0716,-0.0716,-0.0823,-0.0798,0,0,0,0,0,0,0,0,0,0,-0.0785,-0.0774,-0.0722,-0.0722,-0.0714,-0.0716,-0.0716,-0.0796,-0.08,-0.0849,0,-0.0845,0,-0.0831,-0.0833,-0.0833,0,0,0,-0.0726,-0.077,-0.0767,-0.0722,-0.0714,-0.0716,-0.0719,-0.0797,-0.0802,-0.0854,-0.0846,-0.0849,-0.0833,-0.0834,-0.0834,-0.0986,-0.0987,0,0,-0.0726,-0.0731,-0.0763,-0.0769,-0.0712,-0.0718,-0.0718,-0.0799,-0.0808,-0.0846,-0.0851,-0.0835,-0.0835,-0.0835,-0.0985,-0.0986,0,0,0,-0.0718,-0.0731,-0.0724,-0.0766,-0.0754,-0.0718,-0.0718,-0.0804,-0.08,-0.0852,-0.0836,-0.0835,-0.0837,-0.0984,-0.0986,-0.111,0,0,0,-0.0718,-0.0725,-0.0724,-0.0728,-0.0752,-0.0764,-0.0722,-0.0795,-0.0803,-0.0836,-0.0835,-0.0838,-0.0984,-0.0985,-0.1105,-0.1071,0,0,0,-0.0723,-0.0726,-0.0724,-0.0728,-0.0722,-0.0762,-0.0763,-0.0796,-0.0794,-0.0833,-0.0838,-0.0983,-0.0985,-0.1101,-0.1066,-0.1116,0,0,0,-0.0732,-0.0725,-0.0724,-0.0726,-0.0722,-0.0747,-0.0762,-0.0829,-0.0873,-0.0836,-0.0984,-0.0985,-0.1099,-0.1063,-0.1113,-0.0977,0,0,0,-0.0726,-0.0725,-0.0728,-0.0726,-0.0757,-0.0747,-0.0804,-0.089,-0.0911,-0.0965,-0.0968,-0.1107,-0.1066,-0.1115,-0.1077,0,0,0,0,-0.0728,-0.0735,-0.0744,-0.0763,-0.0779,-0.0843,-0.0877,-0.0919,-0.1038,-0.0938,-0.1106,-0.1074,-0.1102,-0.1014,-0.0994,-0.0993,-0.0993,-0.0993,-0.0993,-0.0733,-0.075,-0.0776,-0.0809,-0.085,-0.0927,-0.0987,-0.1053,-0.1074,-0.1166,-0.1181,-0.1293,-0.1209,-0.1229,-0.123,-0.123,-0.1231,-0.1231,-0.1231,-0.0738,-0.0747,-0.0817,-0.0855,-0.0941,-0.1009,-0.1122,-0.1182,-0.1263,-0.1264,-0.1291,-0.1156,-0.1244,-0.1241,-0.1239,-0.1238,-0.1237,-0.1236,-0.1236,-0.0727,-0.0733,-0.0777,-0.0866,-0.0991,-0.1094,-0.1212,-0.1293,-0.1348,-0.139,-0.1308,-0.1345,-0.1328,-0.1449,-0.145,-0.145,-0.145,-0.145,-0.145,-0.0683,-0.0722,-0.0772,-0.0885,-0.0964,-0.1104,-0.1271,-0.1329,-0.1412,-0.1359,-0.1424,-0.1364,-0.1357,-0.1338,-0.1452,-0.1452,-0.1451,-0.1451,-0.1451,-0.0632,-0.0669,-0.0725,-0.0796,-0.0967,-0.1055,-0.123,-0.1331,-0.1379,-0.1369,-0.1347,-0.1352,-0.1271,-0.1265,-0.1239,-0.1329,-0.1327,-0.1326,0,-0.0596,-0.062,-0.0682,-0.0766,-0.0886,-0.1023,-0.1104,-0.1209,-0.1262,-0.1204,-0.1359,-0.1329,-0.1333,-0.1236,-0.1228,-0.1195,0,0,0,-0.0567,-0.0591,-0.0619,-0.0716,-0.0843,-0.0977,-0.1123,-0.1135,-0.1228,-0.1285,-0.1291,-0.1301,-0.1443,-0.1458,-0.1342,-0.1334,-0.1295,0,0]},{"header":{"parameterUnit":"m.s-1","parameterCategory":2,"la1":30.2992,"la2":30.254,"lo1":-89.0895,"lo2":-89.0443,"dy":0.0025,"dx":0.0025,"nx":19,"ny":19,"refTime":"2026-04-02T09:00:00:Z","depth":"4","parameterNumber":3,"parameterNumberName":"V-component_of_CURRENTS"},"data":[0,0,0,-0.0086,-0.0085,-0.0,0.0,0.0229,0.0232,0,0,0,0,0,0,0,0,0,0,0,-0.0112,-0.0112,-0.0086,-0.0085,-0.0,0.0,0.0229,0.0232,0,0,0,0,0,0,0,0,0,0,0,-0.0112,-0.0112,-0.0112,-0.0085,-0.0001,0.0,0.0229,0.014,0,0,0,0,0,0,0,0,0,0,0.0045,-0.0009,-0.0112,-0.0112,-0.0085,-0.0001,0.0,0.0135,0.0146,0.0219,0,0.0217,0,0.0222,0.0248,0.0248,0,0,0,-0.0063,-0.0018,0.0005,-0.0112,-0.0084,-0.0001,-0.0032,0.014,0.0153,0.0234,0.022,0.0228,0.0226,0.0249,0.025,0.0372,0.0372,0,0,-0.0067,-0.0087,-0.0005,0.0012,-0.0077,-0.0035,-0.003,0.0146,0.0156,0.0221,0.0233,0.023,0.0251,0.0253,0.0372,0.0372,0,0,0,-0.0096,-0.009,-0.0074,0.0003,0.0005,-0.0033,-0.0027,0.0148,0.0153,0.0235,0.0232,0.0252,0.0255,0.0373,0.0372,0.0284,0,0,0,-0.0098,-0.0109,-0.0076,-0.0086,-0.0,0.006,-0.0029,0.0141,0.016,0.0231,0.0252,0.0257,0.0373,0.0373,0.0287,0.0249,0,0,0,-0.0113,-0.011,-0.0106,-0.0087,-0.0062,0.0056,0.0071,0.0145,0.0159,0.0249,0.0258,0.0374,0.0373,0.029,0.0254,0.0244,0,0,0,-0.0127,-0.0126,-0.0107,-0.0095,-0.0063,-0.0002,0.007,0.0152,0.0226,0.0253,0.0373,0.0372,0.0291,0.0258,0.0247,0.0189,0,0,0,-0.0133,-0.0127,-0.0117,-0.0099,-0.0063,-0.0011,0.0032,0.0166,0.0229,0.033,0.0332,0.0286,0.0255,0.0245,0.0125,0,0,0,0,-0.0123,-0.0124,-0.0104,-0.0083,-0.0031,-0.0007,0.0106,0.0144,0.0217,0.0261,0.0288,0.0272,0.0269,0.0243,0.0367,0.0367,0.0367,0.0367,0.0367,-0.0174,-0.0142,-0.013,-0.0091,-0.0059,0.0018,0.0046,0.0109,0.0199,0.0198,0.0201,0.0134,0.0102,0.0205,0.0204,0.0204,0.0203,0.0203,0.0203,-0.0203,-0.0201,-0.0174,-0.0157,-0.0126,-0.0094,-0.002,0.0027,0.0076,0.0126,0.0128,0.0152,0.0194,0.0196,0.0197,0.0198,0.0199,0.0199,0.02,-0.0244,-0.024,-0.0233,-0.0233,-0.0236,-0.0186,-0.0188,-0.0108,-0.0017,-0.0015,-0.0001,0.0086,0.0094,-0.0001,-0.0002,-0.0002,-0.0002,-0.0002,-0.0002,-0.0293,-0.0281,-0.0309,-0.0313,-0.0339,-0.0349,-0.028,-0.024,-0.0138,-0.0107,-0.003,0.0067,0.0073,0.0084,-0.0006,-0.0005,-0.0005,-0.0005,-0.0004,-0.0328,-0.0336,-0.038,-0.0415,-0.0475,-0.0479,-0.0422,-0.0332,-0.029,-0.0243,-0.014,-0.0132,-0.0097,-0.0085,-0.0078,-0.022,-0.0221,-0.0222,0,-0.0367,-0.0368,-0.0448,-0.0523,-0.0585,-0.056,-0.0531,-0.0459,-0.0332,-0.0337,-0.0277,-0.0164,-0.0156,-0.0117,-0.0109,-0.0104,0,0,0,-0.0399,-0.0416,-0.0492,-0.056,-0.064,-0.0582,-0.0521,-0.0492,-0.0359,-0.0331,-0.025,-0.0242,-0.0129,-0.0017,0.0058,0.0066,0.0088,0,0]}]]